Langdon, ND

10:34 PM CDT on March 27, 2017 (GMT -0500)
Langdon

Weather History for KD55 - November, 2012

Change the Weather History Date:

Monday, November 12, 2012

  Actual Average (KDVL) Record (KDVL)
Temperature  
Mean Temperature 10 °F -  
Max Temperature 14 °F 33 °F 62 °F (1953)
Min Temperature 6 °F 17 °F -9 °F (1986)
Degree Days  
Heating Degree Days 55    
Moisture  
Dew Point 7 °F    
Average Humidity 89    
Maximum Humidity 100    
Minimum Humidity 79    
Precipitation  
Precipitation 0.07 in - - ()
Sea Level Pressure  
Sea Level Pressure 29.95 in    
Wind  
Wind Speed 20 mph (West)    
Max Wind Speed 26 mph    
Max Gust Speed 32 mph    
Visibility 7 miles    
Events Rain , Snow    
Averages and records for this station are not official NWS values.
T = Trace of Precipitation, MM = Missing Value Source: NWS Daily Summary

Daily Weather History Graph

Daily Weather History Graph

Search for Another Location

Airport or City:

Trip Planner

Search our weather history database for the weather conditions in past years. The results will help you decide how hot, cold, wet, or windy it might be!

Date:

Astronomy

Nov. 12, 2012 Rise Set
Actual Time 7:38 AM CST 4:56 PM CST
Civil Twilight 7:04 AM CST 5:30 PM CST
Nautical Twilight 6:26 AM CST 6:08 PM CST
Astronomical Twilight 5:49 AM CST 6:45 PM CST
Moon 6:01 AM CST (11/12) 4:04 PM CST (11/12)
Length of Visible Light 10h 26m
Length of Day
9h 18m
Waning Crescent, 2% of the Moon is Illuminated
Nov 12
Waning Crescent
Nov 13
New
Nov 20
First Quarter
Nov 28
Full
Dec 6
Last Quarter

Hourly Weather History & Observations

Time (CST) Temp. Windchill Dew Point Humidity Pressure Visibility Wind Dir Wind Speed Gust Speed Precip Events Conditions
12:15 AM 14.0 °F -5.1 °F 12.2 °F 93% 29.74 in 1.8 mi WNW 24.2 mph 32.2 mph 0.03 in Snow Light Snow
12:35 AM 14.0 °F -3.9 °F 12.2 °F 93% 29.75 in 2.5 mi WNW 20.7 mph - 0.06 in Snow Light Snow
12:55 AM 14.0 °F -4.7 °F 10.4 °F 86% 29.75 in 2.0 mi WNW 23.0 mph 29.9 mph 0.07 in Snow Light Snow
1:15 AM 14.0 °F -4.7 °F 10.4 °F 86% 29.75 in 2.0 mi WNW 23.0 mph - N/A Snow Light Snow
1:35 AM 12.2 °F -7.1 °F 10.4 °F 92% 29.76 in 3.0 mi WNW 23.0 mph 29.9 mph N/A Snow Light Snow
1:55 AM 12.2 °F -6.7 °F 10.4 °F 92% 29.76 in 2.5 mi WNW 21.9 mph 28.8 mph N/A   Overcast
2:15 AM 12.2 °F -7.1 °F 10.4 °F 92% 29.77 in 2.5 mi WNW 23.0 mph 29.9 mph N/A Snow Light Snow
2:35 AM 12.2 °F -7.5 °F 10.4 °F 92% 29.78 in 2.0 mi WNW 24.2 mph 29.9 mph N/A Rain Light Freezing Rain
2:55 AM 10.4 °F -10.3 °F 10.4 °F 100% 29.78 in 2.5 mi WNW 25.3 mph 32.2 mph N/A Rain Light Freezing Rain
3:15 AM 10.4 °F -9.5 °F 8.6 °F 92% 29.79 in 3.0 mi WNW 23.0 mph 27.6 mph N/A   Overcast
3:35 AM 10.4 °F -10.3 °F 8.6 °F 92% 29.79 in 3.0 mi WNW 25.3 mph 32.2 mph N/A   Overcast
3:55 AM 10.4 °F -9.5 °F 8.6 °F 92% 29.80 in 3.0 mi WNW 23.0 mph 28.8 mph N/A Snow Light Snow
4:15 AM 10.4 °F -9.9 °F 8.6 °F 92% 29.80 in 2.5 mi NW 24.2 mph 31.1 mph N/A   Overcast
4:35 AM 8.6 °F -12.3 °F 6.8 °F 92% 29.82 in 3.0 mi NW 24.2 mph 31.1 mph N/A   Overcast
4:55 AM 8.6 °F -11.4 °F 5.0 °F 85% 29.82 in 4.0 mi NW 21.9 mph - N/A   Overcast
5:15 AM 6.8 °F -14.7 °F 5.0 °F 92% 29.84 in 5.0 mi WNW 24.2 mph - N/A   Overcast
5:35 AM 6.8 °F -13.8 °F 3.2 °F 85% 29.84 in 4.0 mi WNW 21.9 mph 28.8 mph N/A   Mostly Cloudy
5:55 AM 6.8 °F -14.7 °F 3.2 °F 85% 29.85 in 5.0 mi WNW 24.2 mph 32.2 mph N/A   Mostly Cloudy
6:15 AM 6.8 °F -13.8 °F 3.2 °F 85% 29.86 in 5.0 mi WNW 21.9 mph 29.9 mph N/A   Overcast
6:35 AM 6.8 °F -13.4 °F 5.0 °F 92% 29.87 in 5.0 mi NW 20.7 mph 27.6 mph N/A Snow Light Snow
6:55 AM 6.8 °F -13.8 °F 5.0 °F 92% 29.88 in 6.0 mi NW 21.9 mph - N/A   Overcast
7:15 AM 6.8 °F -12.4 °F 5.0 °F 92% 29.89 in 8.0 mi WNW 18.4 mph - N/A   Overcast
7:35 AM 6.8 °F -13.4 °F 5.0 °F 92% 29.89 in 5.0 mi WNW 20.7 mph - N/A   Overcast
7:55 AM 8.6 °F -11.0 °F 6.8 °F 92% 29.91 in 5.0 mi WNW 20.7 mph 26.5 mph N/A   Overcast
8:15 AM 8.6 °F -11.9 °F 6.8 °F 92% 29.91 in 4.0 mi WNW 23.0 mph - N/A Snow Light Snow
8:35 AM 8.6 °F -13.1 °F 6.8 °F 92% 29.92 in 1.5 mi WNW 26.5 mph 32.2 mph N/A Snow Light Snow
8:55 AM 8.6 °F -13.1 °F 6.8 °F 92% 29.93 in 2.5 mi NW 26.5 mph - N/A   Mostly Cloudy
9:15 AM 8.6 °F -11.9 °F 6.8 °F 92% 29.94 in 2.5 mi NW 23.0 mph 29.9 mph N/A   Overcast
9:35 AM 8.6 °F -11.0 °F 6.8 °F 92% 29.95 in 3.0 mi NW 20.7 mph 31.1 mph N/A   Overcast
9:55 AM 8.6 °F -12.3 °F 5.0 °F 85% 29.96 in 3.0 mi NW 24.2 mph 28.8 mph N/A   Overcast
10:15 AM 8.6 °F -11.4 °F 6.8 °F 92% 29.97 in 5.0 mi NW 21.9 mph 27.6 mph N/A   Overcast
10:35 AM 8.6 °F -11.4 °F 5.0 °F 85% 29.97 in 6.0 mi NW 21.9 mph - N/A   Overcast
10:55 AM 8.6 °F -10.5 °F 6.8 °F 92% 29.98 in 7.0 mi NW 19.6 mph 23.0 mph N/A   Overcast
11:15 AM 10.4 °F -8.6 °F 6.8 °F 85% 29.99 in 8.0 mi NW 20.7 mph - N/A   Overcast
11:35 AM 10.4 °F -7.2 °F 6.8 °F 85% 30.00 in 8.0 mi WNW 17.3 mph - N/A   Overcast
11:55 AM 10.4 °F -7.2 °F 6.8 °F 85% 29.99 in 10.0 mi WNW 17.3 mph - N/A   Overcast
12:15 PM 8.6 °F -8.3 °F 5.0 °F 85% 29.99 in 9.0 mi WNW 15.0 mph - N/A   Partly Cloudy
12:35 PM 10.4 °F -5.4 °F 6.8 °F 85% 29.99 in 9.0 mi WNW 13.8 mph - N/A   Clear
12:55 PM 10.4 °F -6.6 °F 6.8 °F 85% 29.99 in 9.0 mi West 16.1 mph - N/A   Clear
1:15 PM 10.4 °F -6.0 °F 6.8 °F 85% 29.99 in 9.0 mi WNW 15.0 mph - N/A   Clear
1:35 PM 10.4 °F -6.0 °F 6.8 °F 85% 30.00 in 9.0 mi WNW 15.0 mph - N/A   Clear
1:55 PM 12.2 °F -3.1 °F 8.6 °F 85% 30.00 in 9.0 mi West 13.8 mph - N/A   Clear
2:15 PM 12.2 °F -3.1 °F 8.6 °F 85% 30.01 in 8.0 mi West 13.8 mph - N/A   Clear
2:55 PM 12.2 °F -2.5 °F 6.8 °F 79% 30.02 in 9.0 mi West 12.7 mph - N/A   Clear
3:15 PM 12.2 °F -0.2 °F 6.8 °F 79% 30.03 in 9.0 mi West 9.2 mph - N/A   Clear
3:35 PM 12.2 °F 0.7 °F 6.8 °F 79% 30.03 in 10.0 mi West 8.1 mph - N/A   Clear
3:55 PM 10.4 °F -2.4 °F 6.8 °F 85% 30.04 in 9.0 mi West 9.2 mph - N/A   Clear
4:35 PM 6.8 °F -7.8 °F 5.0 °F 92% 30.05 in 10.0 mi West 10.4 mph - N/A   Mostly Cloudy
4:55 PM 6.8 °F -7.8 °F 3.2 °F 85% 30.05 in 9.0 mi WSW 10.4 mph - N/A   Overcast
5:15 PM 6.8 °F -5.9 °F 3.2 °F 85% 30.05 in 9.0 mi SW 8.1 mph - N/A   Overcast
5:35 PM 6.8 °F -8.6 °F 5.0 °F 92% 30.05 in 10.0 mi SW 11.5 mph - N/A   Overcast
5:55 PM 6.8 °F -7.8 °F 5.0 °F 92% 30.05 in 10.0 mi SW 10.4 mph - N/A   Overcast
6:15 PM 8.6 °F -4.7 °F 5.0 °F 85% 30.05 in 10.0 mi SW 9.2 mph - N/A   Overcast
6:35 PM 8.6 °F -6.3 °F 6.8 °F 92% 30.05 in 10.0 mi SW 11.5 mph - N/A   Overcast
6:55 PM 10.4 °F -4.8 °F 6.8 °F 85% 30.05 in 10.0 mi WSW 12.7 mph - N/A   Overcast
7:15 PM 10.4 °F -6.0 °F 8.6 °F 92% 30.05 in 10.0 mi WSW 15.0 mph - N/A   Overcast
7:35 PM 10.4 °F -5.4 °F 6.8 °F 85% 30.05 in 10.0 mi WSW 13.8 mph - N/A   Mostly Cloudy
7:55 PM 8.6 °F -5.5 °F 6.8 °F 92% 30.04 in 10.0 mi WSW 10.4 mph - N/A   Partly Cloudy
8:15 PM 8.6 °F -3.7 °F 5.0 °F 85% 30.04 in 10.0 mi SW 8.1 mph - N/A   Clear
8:35 PM 8.6 °F -6.3 °F 5.0 °F 85% 30.04 in 10.0 mi SW 11.5 mph - N/A   Clear
8:55 PM 8.6 °F -3.7 °F 5.0 °F 85% 30.04 in 10.0 mi SW 8.1 mph - N/A   Clear
9:15 PM 8.6 °F -7.0 °F 6.8 °F 92% 30.04 in 10.0 mi SW 12.7 mph - N/A   Clear
9:35 PM 8.6 °F -5.5 °F 5.0 °F 85% 30.04 in 10.0 mi SW 10.4 mph - N/A   Clear
9:55 PM 6.8 °F -8.6 °F 5.0 °F 92% 30.05 in 10.0 mi WSW 11.5 mph - N/A   Clear
10:15 PM 8.6 °F -7.0 °F 6.8 °F 92% 30.05 in 10.0 mi WSW 12.7 mph - N/A   Clear
10:35 PM 8.6 °F -7.0 °F 6.8 °F 92% 30.05 in 10.0 mi WSW 12.7 mph - N/A   Clear
10:55 PM 8.6 °F -5.5 °F 6.8 °F 92% 30.04 in 10.0 mi WSW 10.4 mph - N/A   Clear
11:15 PM 8.6 °F -5.5 °F 6.8 °F 92% 30.05 in 10.0 mi WSW 10.4 mph - N/A   Clear
11:35 PM 8.6 °F -5.5 °F 6.8 °F 92% 30.06 in 9.0 mi WSW 10.4 mph - N/A   Clear
11:55 PM 6.8 °F -6.9 °F 6.8 °F 100% 30.06 in 8.0 mi West 9.2 mph - N/A   Clear